Home > Weather > Nicosia > Past weeks

Flag for Cyprus Past Weather in Nicosia, Cyprus — Yesterday and Last 2 Weeks

Now
82 °F

Sunny.


Feels Like: 83 °F
Forecast: 74 / 97 °F
Wind: 6 mph from West

Location: Ercan

Current Time: Jul 30, 2016 at 8:26:33 AM

Latest Report: Jul 30, 2016 at 7:50 AM


Visibility: 10 mi

Pressure: 29.65 "Hg

Humidity: 48%

Dew Point: 61 °F

Location of NicosiaLocation

Past Weather in Nicosia — Graph

°F

Nicosia Temperature Yesterday

Maximum temperature yesterday: 102 °F (at 1:20 PM)
Minimum temperature yesterday: 75 °F (at 5:50 AM)
Average temperature yesterday: 88 °F

High & Low Weather Summary for the Past Weeks

 TemperatureHumidityPressure
High102 °F (Jul 16, 1:50 PM)89% (Jul 27, 3:20 AM)29.86 "Hg (Jul 27, 3:20 AM)
Low72 °F (Jul 18, 5:50 AM)10% (Jul 25, 2:20 PM)29.59 "Hg (Jul 18, 4:50 PM)
Average86 °F53%29.69 "Hg
* Reported Jul 15 6:20 AM — Jul 30 6:50 AM, Nicosia, Weather by CustomWeather, © 2016

Note: Actual official high and low records may vary slightly from our data, if they occured in-between our weather recording intervals... More about our weather records

Advertising

Nicosia Weather History for the Previous 24 Hours

Scroll right to see more
 ConditionsComfort  
Time TempWeatherWind HumidityBarometerVisibility
6:50 AM
Sat, Jul 30
79 °FClear.5 mph58%29.65 "Hg10 mi
6:20 AM75 °FClear.6 mph65%29.65 "Hg10 mi
5:50 AM77 °FClear.6 mph57%29.65 "Hg10 mi
5:20 AM77 °FClear.8 mph61%29.65 "Hg10 mi
4:50 AM77 °FClear.9 mph57%29.65 "Hg10 mi
4:20 AM77 °FClear.8 mph57%29.65 "Hg10 mi
3:50 AM75 °FClear.3 mph65%29.62 "Hg10 mi
3:20 AM79 °FClear.12 mph65%29.62 "Hg10 mi
2:50 AM79 °FClear.12 mph65%29.62 "Hg10 mi
2:20 AM79 °FClear.9 mph61%29.62 "Hg10 mi
1:50 AM79 °FClear.8 mph61%29.65 "Hg10 mi
1:20 AM79 °FClear.7 mph61%29.65 "Hg10 mi
12:50 AM81 °FClear.9 mph58%29.65 "Hg10 mi
12:20 AM81 °FClear.9 mph58%29.65 "Hg10 mi
11:50 PM
Fri, Jul 29
81 °FClear.7 mph58%29.65 "Hg10 mi
11:20 PM82 °FClear.10 mph55%29.65 "Hg10 mi
10:50 PM82 °FClear.9 mph55%29.65 "Hg10 mi
10:20 PM84 °FClear.14 mph51%29.65 "Hg10 mi
9:50 PM86 °FClear.15 mph46%29.65 "Hg10 mi
9:20 PM86 °FClear.16 mph46%29.65 "Hg10 mi
8:50 PM86 °FSunny.18 mph46%29.65 "Hg10 mi
8:20 PM88 °FSunny.15 mph40%29.65 "Hg10 mi
7:50 PM90 °FSunny.16 mph36%29.62 "Hg10 mi
7:20 PM93 °FSunny.20 mph30%29.62 "Hg10 mi
6:50 PM95 °FSunny.17 mph26%29.62 "Hg10 mi
6:20 PM97 °FPassing clouds.18 mph27%29.62 "HgN/A
5:50 PM100 °FPassing clouds.12 mph22%29.62 "HgN/A
5:20 PM99 °FPassing clouds.9 mph31%29.62 "HgN/A
4:50 PM97 °FPassing clouds.12 mph34%29.62 "HgN/A
4:20 PM97 °FPassing clouds.9 mph37%29.65 "HgN/A
3:50 PM99 °FPassing clouds.12 mph35%29.62 "HgN/A
3:20 PM99 °FPassing clouds.14 mph35%29.65 "Hg4 mi
2:50 PM99 °FPassing clouds.15 mph35%29.65 "HgN/A
2:20 PM100 °FPassing clouds.14 mph31%29.65 "HgN/A
1:50 PM102 °FPassing clouds.7 mph20%29.65 "HgN/A
1:20 PM102 °FPassing clouds.7 mph23%29.65 "HgN/A
12:50 PM100 °FPassing clouds.7 mph24%29.65 "HgN/A
12:20 PM100 °FSunny.5 mph24%29.65 "Hg10 mi
11:50 AM97 °FSunny.3 mph28%29.68 "Hg10 mi
11:20 AM95 °FSunny.6 mph30%29.68 "Hg10 mi
10:50 AM95 °FPassing clouds.7 mph28%29.68 "HgN/A
10:20 AM91 °FSunny.3 mph36%29.68 "Hg10 mi
9:50 AM90 °FSunny.3 mph49%29.68 "Hg10 mi
9:20 AM88 °FSunny.No wind55%29.68 "Hg10 mi
8:50 AM84 °FPassing clouds.5 mph66%29.71 "HgN/A
8:20 AM82 °FSunny.No wind74%29.71 "Hg10 mi
Weather by CustomWeather, © 2016

See weather overviewHow to use our weather pages